This demonstration page uses our WeatherBlox Daily Observations layout. Learn more.

40.92945, -100.16068

Hourly Observations for June 7, 2015

Temp ( °F °C ) Dew Point ( °F °C ) Humidity (%) Winds ( mph kmh ) Pressure ( in mb ) Visibility ( mi km ) Precip ( " mm )
12:15 am 00:15 Clear 69 20.7 65 18.3 86 86 Calm 29.77 1008 10 16.0934 N/A
12:35 am 00:35 Clear 69 20.3 65 18.5 89 89 Calm 29.77 1008 10 16.0934 N/A
12:55 am 00:55 Clear 68 20.1 65 18.2 89 89 SSW 7 11 29.77 1008 10 16.0934 N/A
1:15 am 01:15 Clear 70 21.1 66 19 88 88 Calm 29.8 1009 10 16.0934 N/A
1:35 am 01:35 Clear 70 21.1 65 18.1 83 83 N 7 11 29.8 1009 10 16.0934 N/A
1:55 am 01:55 Clear 69 20.5 64 17.9 85 85 N 7 11 29.77 1008 10 16.0934 N/A
2:15 am 02:15 Clear 68 19.9 64 17.7 87 87 N 7 11 29.77 1008 10 16.0934 N/A
2:35 am 02:35 Clear 67 19.5 63 17.3 87 87 N 8 13 29.77 1008 10 16.0934 N/A
2:55 am 02:55 Clear 66 19 63 17 88 88 N 8 13 29.77 1008 10 16.0934 N/A
3:15 am 03:15 Clear 66 18.8 62 16.7 88 88 N 9 15 29.77 1008 10 16.0934 N/A
3:35 am 03:35 Clear 66 18.9 62 16.6 87 87 N 6 9 29.77 1008 10 16.0934 N/A
3:55 am 03:55 Clear 65 18.1 62 16.4 90 90 N 6 9 29.8 1009 10 16.0934 N/A
4:15 am 04:15 Clear 64 17.8 61 16.3 91 91 N 6 9 29.77 1008 10 16.0934 N/A
4:35 am 04:35 Clear 64 17.8 62 16.5 92 92 N 5 7 29.77 1008 10 16.0934 N/A
4:55 am 04:55 Clear 63 17.3 61 16.1 93 93 N 6 9 29.77 1008 10 16.0934 N/A
5:15 am 05:15 Clear 63 17.1 61 16 93 93 NNW 7 11 29.77 1008 10 16.0934 N/A
5:35 am 05:35 Clear 63 17 61 16 94 94 Calm 29.77 1008 10 16.0934 N/A
5:55 am 05:55 Clear 62 16.5 60 15.5 94 94 NW 5 7 29.8 1009 10 16.0934 N/A
6:15 am 06:15 Sunny 62 16.5 60 15.6 94 94 Calm 29.8 1009 10 16.0934 N/A
6:35 am 06:35 Sunny 61 16.2 60 15.4 95 95 Calm 29.8 1009 10 16.0934 N/A
6:55 am 06:55 Sunny 62 16.5 60 15.7 95 95 Calm 29.8 1009 10 16.0934 N/A
7:15 am 07:15 Sunny 64 17.6 62 16.8 95 95 Calm 29.83 1010 10 16.0934 N/A
7:35 am 07:35 Sunny 65 18.3 63 17.2 93 93 Calm 29.83 1010 10 16.0934 N/A
7:55 am 07:55 Partly Cloudy 67 19.4 64 17.7 90 90 N 5 7 29.8 1009 10 16.0934 N/A
8:15 am 08:15 Mostly Cloudy 68 20.1 64 18 88 88 NE 3 6 29.8 1009 10 16.0934 N/A
8:35 am 08:35 Cloudy 69 20.4 64 17.6 84 84 ENE 6 9 29.8 1009 10 16.0934 N/A
8:55 am 08:55 Mostly Cloudy 70 20.9 65 18.3 85 85 E 6 9 29.8 1009 10 16.0934 N/A
9:15 am 09:15 Mostly Cloudy 70 21.1 64 17.8 82 82 Calm 29.83 1010 10 16.0934 N/A
9:35 am 09:35 Partly Cloudy with Nearby Thunderstorms 72 22.1 65 18.3 79 79 NNE 10 17 29.83 1010 10 16.0934 N/A
9:55 am 09:55 Mostly Cloudy 72 22.4 64 17.5 74 74 NNW 14 22 29.83 1010 10 16.0934 N/A
10:15 am 10:15 Mostly Cloudy 71 21.5 63 17 76 76 N 20 31 29.85 1011 10 16.0934 N/A
10:35 am 10:35 Mostly Cloudy 70 21.3 62 16.9 76 76 NNW 17 28 29.85 1011 10 16.0934 N/A
10:55 am 10:55 Cloudy 70 20.9 62 16.9 78 78 NNW 18 30 29.85 1011 10 16.0934 N/A
11:15 am 11:15 Cloudy 70 20.9 62 16.5 76 76 N 15 24 29.85 1011 10 16.0934 N/A
11:35 am 11:35 Cloudy 71 21.5 62 16.5 73 73 N 14 22 29.85 1011 10 16.0934 N/A
11:55 am 11:55 Mostly Cloudy 72 22.2 62 16.4 70 70 NNE 14 22 29.83 1010 10 16.0934 N/A
12:15 pm 12:15 Partly Cloudy 72 22.4 62 16.4 69 69 NNE 14 22 29.83 1010 10 16.0934 N/A
12:35 pm 12:35 Mostly Cloudy 73 22.5 62 16.6 69 69 NNE 9 15 29.8 1009 10 16.0934 N/A
12:55 pm 12:55 Mostly Cloudy 74 23.5 62 16.4 65 65 NE 10 17 29.8 1009 10 16.0934 N/A
1:15 pm 13:15 Partly Cloudy 74 23.1 61 16.3 66 66 NNE 8 13 29.83 1010 10 16.0934 N/A
1:35 pm 13:35 Partly Cloudy 75 24 60 15.3 58 58 NNE 8 13 29.83 1010 10 16.0934 N/A
1:55 pm 13:55 Sunny 76 24.5 59 15 56 56 NNE 9 15 29.83 1010 10 16.0934 N/A
2:15 pm 14:15 Sunny 76 24.7 58 14.6 53 53 NNE 12 19 29.83 1010 10 16.0934 N/A
2:35 pm 14:35 Sunny 76 24.6 58 14.6 54 54 N 10 17 29.83 1010 10 16.0934 N/A
2:55 pm 14:55 Sunny 76 24.6 57 14 52 52 NNE 12 19 29.83 1010 10 16.0934 N/A
3:15 pm 15:15 Sunny 77 24.8 57 14 51 51 ENE 7 11 29.83 1010 10 16.0934 N/A
3:35 pm 15:35 Partly Cloudy 77 24.9 57 13.9 51 51 NE 8 13 29.83 1010 10 16.0934 N/A
3:55 pm 15:55 Partly Cloudy 77 25.1 61 16 57 57 Calm 29.83 1010 10 16.0934 N/A
4:15 pm 16:15 Sunny 78 25.5 59 14.8 52 52 Calm 29.83 1010 10 16.0934 N/A
4:35 pm 16:35 Sunny 78 25.6 59 14.8 51 51 Calm 29.77 1008 10 16.0934 N/A
4:55 pm 16:55 Sunny 78 25.8 60 15.3 52 52 NW 5 7 29.77 1008 10 16.0934 N/A
5:15 pm 17:15 Partly Cloudy 77 25.2 60 15.6 55 55 W 3 6 29.8 1009 10 16.0934 N/A
5:35 pm 17:35 Mostly Cloudy 77 25 60 15.6 56 56 NNW 5 7 29.8 1009 10 16.0934 N/A
5:55 pm 17:55 Mostly Cloudy 76 24.5 62 16.4 61 61 Calm 29.8 1009 10 16.0934 N/A
6:15 pm 18:15 Mostly Cloudy 76 24.3 60 15.8 59 59 N 8 13 29.8 1009 10 16.0934 N/A
6:35 pm 18:35 Mostly Cloudy 78 25.5 61 16.1 56 56 N 6 9 29.83 1010 10 16.0934 N/A
6:55 pm 18:55 Partly Cloudy 76 24.4 60 15.7 58 58 N 8 13 29.8 1009 10 16.0934 N/A
7:15 pm 19:15 Sunny 78 25.4 61 16.3 57 57 N 7 11 29.8 1009 10 16.0934 N/A
7:35 pm 19:35 Sunny 77 24.8 60 15.8 57 57 NNE 7 11 29.8 1009 10 16.0934 N/A
7:55 pm 19:55 Sunny 76 24.2 60 15.5 58 58 NNE 5 7 29.8 1009 10 16.0934 N/A
8:15 pm 20:15 Sunny 75 23.8 60 15.8 61 61 NNE 6 9 29.83 1010 10 16.0934 N/A
8:35 pm 20:35 Hazy 74 23.2 60 15.7 63 63 N 3 6 29.83 1010 3 4.82802 N/A
8:55 pm 20:55 Sunny 72 22 61 15.9 68 68 N 6 9 29.85 1011 10 16.0934 N/A
9:15 pm 21:15 Clear 70 21 60 15.7 72 72 NNW 6 9 29.85 1011 10 16.0934 N/A
9:35 pm 21:35 Clear 68 20.2 60 15.7 75 75 NNW 5 7 29.88 1012 10 16.0934 N/A
9:55 pm 21:55 Clear 67 19.5 60 15.7 79 79 N 6 9 29.88 1012 10 16.0934 N/A
10:15 pm 22:15 Clear 67 19.3 60 15.6 79 79 NNW 6 9 29.91 1013 10 16.0934 N/A
10:35 pm 22:35 Clear 66 18.7 60 15.7 83 83 NNW 5 7 29.91 1013 10 16.0934 N/A
11:15 pm 23:15 Clear 64 18 60 15.5 85 85 W 5 7 29.91 1013 10 16.0934 N/A
11:35 pm 23:35 Clear 62 16.7 59 14.8 89 89 W 5 7 29.94 1014 10 16.0934 N/A

Powered by AerisWeather